User: anonymous   Login
Location: Unspecified
(0.0000°N, 0.0000°E)
Time: 10:33:25
(UTC+00:00)
Language:

Meteor 1-23 - Orbit

View from above orbital plane
View from above orbital plane
View from above satellite
View from above satellite

Ground track
Ground track

The orbit data is extracted from the following two-line orbital elements,

1  8519U 75124A   18021.54589898 +.00000146 +00000-0 +74816-4 0  9991
2  8519 081.2420 235.9448 0014098 026.2745 333.9138 14.10777181164159
Epoch (UTC): 21 January 2018 13:06:05
Eccentricity: 0.0014098
inclination: 81.2420°
perigee height: 846 km
apogee height: 867 km
right ascension of ascending node: 235.9448°
argument of perigee: 26.2745°
revolutions per day: 14.10777181
mean anomaly at epoch: 333.9138°
orbit number at epoch: 16415

The dashed part of the orbit path shows where the satellite is in the earth's shadow,  

DLR